Regional Weather Roundup
Issued by NWS

Home | Current Version | Previous Version | Text Only | Print | Product List | Glossary Off
Versions: 1 2 3 4 5 6 7 8 9 10 11 12 13 14 15 16 17 18 19 20 21 22 23 24 25 26 27 28 29 30 31 32 33 34 35 36 37 38 39 40 41 42 43 44 45 46 47 48 49 50

777
ASUS43 KOAX 250910
RWRNE

WEATHER ROUNDUP FOR NEBRASKA
NATIONAL WEATHER SERVICE OMAHA NE
300 AM CST SUN FEB 25 2018

NOTES: SATELLITE DATA IS BEING USED TO AUGMENT CLOUD COVER ABOVE
       12000 FEET.
       "FAIR" INDICATES FEW OR NO CLOUDS BELOW 12,000 FEET WITH NO
       SIGNIFICANT WEATHER AND/OR OBSTRUCTIONS TO VISIBILITY.


NEZ001>004-019>022-054>056-251000-
NEBRASKA PANHANDLE

CITY           SKY/WX    TMP DP  RH WIND       PRES   REMARKS
SCOTTSBLUFF    CLOUDY    25  13  60 W7        29.82S WCI  17
ALLIANCE       CLOUDY    21  13  71 W10       29.79S WCI  10
CHADRON        MOCLDY     6   1  80 CALM      29.81R
GORDON         FAIR      17   6  62 W8        29.77R WCI   6
KIMBALL        MOCLDY    24  10  56 W16       29.81S WCI  10
SIDNEY         CLOUDY    28   9  44 W20       29.83S WCI  15
$$

NEZ057>060-069>072-079>082-251000-
SOUTHWEST NEBRASKA

CITY           SKY/WX    TMP DP  RH WIND       PRES   REMARKS
NORTH PLATTE   PTCLDY     7   2  80 NW3       29.85F
IMPERIAL       CLOUDY    28  14  55 SW13      29.87R WCI  17
LEXINGTON      CLEAR     17  13  83 NW5       29.87F WCI  10
MCCOOK         PTCLDY    22  15  75 SW8       29.90F WCI  12
OGALLALA       MOCLDY    21  13  72 SW6       29.84S WCI  14
$$

NEZ005>010-023>029-035>040-094-251000-
NORTH CENTRAL NEBRASKA

CITY           SKY/WX    TMP DP  RH WIND       PRES   REMARKS
VALENTINE      PTCLDY    15   6  67 W9        29.78R WCI   3
AINSWORTH      PTCLDY    18  10  70 W12       29.77F WCI   6
BROKEN BOW     CLEAR     12   4  70 SW8       29.83R WCI   0
O`NEILL        CLEAR     18  10  73 W14       29.78F WCI   4
ORD            CLEAR     16   8  71 CALM      29.83S
THEDFORD       PTCLDY    21  11  65 W12       29.81S WCI   9
$$

NEZ041-046>049-061>064-073>077-083>087-251000-
SOUTH CENTRAL NEBRASKA

CITY           SKY/WX    TMP DP  RH WIND       PRES   REMARKS
GRAND ISLAND   CLEAR     21  13  71 W9        29.87S WCI  11
AURORA         CLEAR     20  13  75 W10       29.87S WCI   8
HASTINGS       CLEAR     19  12  74 W10       29.89S WCI   7
HEBRON         CLEAR     22  17  80 SW6       29.93R WCI  14
HOLDREGE       CLEAR     22  15  75 W9        29.89F WCI  11
KEARNEY        CLEAR     22  14  71 W8        29.88F WCI  12
YORK           CLEAR     18  16  93 W8        29.88R WCI   7
$$

NEZ011>018-030>034-042>045-251000-
NORTHEAST NEBRASKA

CITY           SKY/WX    TMP DP  RH WIND       PRES   REMARKS
NORFOLK        CLEAR     20  11  68 W9        29.80F WCI   9
ALBION         CLEAR     19  12  72 CALM      29.84R
BLAIR          CLEAR     23  16  74 W6        29.84S WCI  15
COLUMBUS       CLEAR     17  12  80 W7        29.86S WCI   8
FREMONT        CLEAR     25  16  67 SW8       29.86R WCI  16
TEKAMAH        CLEAR     14   9  80 S8        29.85S WCI   3
WAYNE          CLEAR     22  12  63 W17G24    29.79F WCI   8
$$

NEZ050>053-065>068-078-088>093-251000-
SOUTHEAST NEBRASKA

CITY           SKY/WX    TMP DP  RH WIND       PRES   REMARKS
LINCOLN        CLEAR     21  16  81 SE5       29.90R WCI  15
OMAHA EPPLEY   CLEAR     24  15  68 W7        29.87S WCI  16
BEATRICE       CLEAR     24  19  81 SW8       29.92R WCI  15
FALLS CITY     CLEAR     27  20  75 SW9       29.93S WCI  18
NEBRASKA CITY  CLEAR     24  21  88 W9        29.89S WCI  14
PLATTSMOUTH    CLEAR     24  18  75 W7        29.87S WCI  16
$$

NEZ044-045-051>053-067-251000-
OMAHA AREA

CITY           SKY/WX    TMP DP  RH WIND       PRES   REMARKS
OMAHA EPPLEY   CLEAR     24  15  68 W7        29.87S WCI  16
BLAIR          CLEAR     23  16  74 W6        29.84S WCI  15
FREMONT        CLEAR     25  16  67 SW8       29.86R WCI  16
MILLARD        CLEAR     27  17  65 W3        29.87S
OFFUTT AFB     CLEAR     23  16  73 CALM      29.87S
PLATTSMOUTH    CLEAR     24  18  75 W7        29.87S WCI  16
WAHOO          FAIR      23  15  70 W9        29.87S WCI  13
$$




USA.gov is the U.S. government's official web portal to all federal, state and local government web resources and services.